Weather in Wanganui

New Zealand     39°56′00″S   175°03′10″E
temp.,
°C
wind,
m/s
gust,
m/s
humid.,
%
clouds,
%
prec.,
mm/h
press.,
hPa
HPBL,
m
14 april, wed
wed1400:00+13nnw5108910 0.3 1006425
03:00+12nnw498838 0.0 1004334
06:00+12nnw34897 0.4 1004157
09:00+14n3584100 0.3 1004235
12:00+16n2474100 1.9 1003407
15:00+17sse336923 1.4 1002563
18:00+15sse45760 1.6 1004463
21:00+12e48885 0.0 1006223
15 april, thu
thu1500:00+11nnw22902 0.0 1007115
03:00+11nnw459012 0.0 1006201
06:00+13nw5108449 0.1 1006774
09:00+16wnw91379100 0.3 10071222
12:00+17wnw91370100 0.5 10051384
15:00+17wnw101474100 0.3 10041206
18:00+16wnw9138789 1.8 10041055
21:00+16nw9148842 1.6 1004942
16 april, fri
fri1600:00+16wnw9138311 1.8 10061038
03:00+16wnw9138322 0.1 10061115
06:00+16wnw812827 0.3 10071001
09:00+17wnw8127823 0.1 10081124
12:00+18wnw8127649 0.6 10071156
15:00+18wnw914730 0.3 10061382
18:00+16nw9147658 0.4 10061233
21:00+16wnw10158220 0.7 10071218
17 april, sat
sat1700:00+15wnw10148690 2.6 10061201
03:00+15w11147016 1.4 10071320
06:00+13ssw8108111 3.5 1010791
09:00+13sse797698 0.9 10131065
12:00+14s666447 1.1 10141241
15:00+14s45605 0.0 1014933
18:00+13ssw34635 0.0 1015502
21:00+12w12695 0.0 1017576
18 april, sun
sun1800:00+10n348337 0.0 1017147
03:00+10n4777100 0.0 1016211
06:00+12nnw51071100 0.0 1016619
09:00+13nnw61072100 0.1 1016710
12:00+16nw71172100 0.3 10161360
15:00+16wnw8116937 0.3 10151376
18:00+15nw8127237 0.3 10151155
21:00+15nw8127295 0.1 10161124